Regional Weather Roundup
Issued by NWS

Home | Current Version | Previous Version | Text Only | Print | Product List | Glossary Off
Versions: 1 2 3 4 5 6 7 8 9 10 11 12 13 14 15 16 17 18 19 20 21 22 23 24 25 26 27 28 29 30 31 32 33 34 35 36 37 38 39 40 41 42 43 44 45 46 47 48 49 50

434
ASUS44 KLIX 271801
RWRLA
LOUISIANA WEATHER ROUNDUP
NATIONAL WEATHER SERVICE NEW ORLEANS LA
1200 PM CST TUE JAN 27 2015

NOTE: "FAIR" INDICATES FEW OR NO CLOUDS BELOW 12,000 FEET WITH NO
      SIGNIFICANT WEATHER AND/OR OBSTRUCTIONS TO VISIBILITY.
      SKY/WX - SKY CONDITION AND SIGNIFICANT WEATHER.
      TMP - AIR TEMPERATURE.    DP   - DEWPOINT TEMPERATURE.
      RH  - RELATIVE HUMIDITY.  PRES - PRESSURE.
      HX  - HEAT INDEX.         WCI  - WIND CHILL INDEX.

*  THESE STATIONS ARE NOT NWS OR FAA STATIONS AND ARE NOT UNDER
   NWS QUALITY CONTROL.

LAZ040-048-061>063-065-066-069-271900-
SOUTHEAST LOUISIANA

CITY           SKY/WX    TMP DP  RH WIND       PRES   REMARKS
N.O. AUDUBON     N/A     70  44  39 MISG        N/A
6HR MIN TEMP:  44; 6HR MAX TEMP:  70;

N.O. INTL ARPT MOSUNNY   65  40  39 N6        30.12F
6HR MIN TEMP:  45; 6HR MAX TEMP:  66;

N.O. LAKEFRONT SUNNY     58  47  66 W7        30.13F
6HR MIN TEMP:  53; 6HR MAX TEMP:  58;

N.O. DOWNTOWN* FAIR      64  39  39 N7        30.13F
6HR MIN TEMP:  48; 6HR MAX TEMP:  64;

SLIDELL        SUNNY     71  39  31 N9        30.10F
6HR MIN TEMP:  45; 6HR MAX TEMP:  71;

BATON ROUGE    SUNNY     71  38  29 N7        30.12F
6HR MIN TEMP:  39; 6HR MAX TEMP:  71;

BOOTHVILLE     SUNNY     61  45  55 VRB7      30.13F
6HR MIN TEMP:  50; 6HR MAX TEMP:  62;

BELLE CHASSE   MOSUNNY   69  39  33 VRB6      30.11F
6HR MIN TEMP:  42; 6HR MAX TEMP:  69;

BOGALUSA*        N/A     69  37  30 N9        30.12F
6HR MIN TEMP:  36; 6HR MAX TEMP:  69;

GALLIANO*      NOT AVBL
NEW ROADS*     NOT AVBL
GONZALES*      NOT AVBL
HAMMOND*       NOT AVBL
HOUMA*         SUNNY     70  45  40 N7        30.13F
PORT FOURCHON* CLEAR     66  45  45 N9        30.16F

$$

LAZ041-044-053-054-271900-
SOUTHWEST LOUISIANA

CITY           SKY/WX    TMP DP  RH WIND       PRES   REMARKS
LAKE CHARLES   SUNNY     71  43  36 NE8       30.14F
6HR MIN TEMP:  43; 6HR MAX TEMP:  71;

LAFAYETTE      SUNNY     69  43  38 N7        30.14F
6HR MIN TEMP:  47; 6HR MAX TEMP:  69;

PATTERSON      SUNNY     66  45  45 N6        30.13F
6HR MIN TEMP:  50; 6HR MAX TEMP:  66;

SALT POINT       N/A     56  51  84 W6        30.13F
6HR MIN TEMP:  51; 6HR MAX TEMP:  57; 6HR PCP:  0.01;

NEW IBERIA     SUNNY     68  43  40 NE8       30.14F
6HR MIN TEMP:  48; 6HR MAX TEMP:  68;

CHENAULT AIRPK NOT AVBL

$$

LAZ027-028-271900-
CENTRAL LOUISIANA

CITY           SKY/WX    TMP DP  RH WIND       PRES   REMARKS
FORT POLK      NOT AVBL
ALEXANDRIA INT SUNNY     69  39  33 CALM      30.13F
6HR MIN TEMP:  38; 6HR MAX TEMP:  70;

ALEXANDRIA     SUNNY     70  40  33 E6        30.14F
6HR MIN TEMP:  39; 6HR MAX TEMP:  70;


$$

LAZ001-002-271900-
NORTHWEST LOUISIANA

CITY           SKY/WX    TMP DP  RH WIND       PRES   REMARKS
SHREVEPORT     SUNNY     71  39  31 NE7       30.15F
6HR MIN TEMP:  38; 6HR MAX TEMP:  71;

BARKSDALE AFB  SUNNY     67  42  39 VRB1      30.16F
6HR MIN TEMP:  35; 6HR MAX TEMP:  67;

DTN SHREVEPORT SUNNY     67  40  37 NE5       30.16F
6HR MIN TEMP:  38; 6HR MAX TEMP:  68;


$$

LAZ014-016-271900-
NORTHEAST LOUISIANA

CITY           SKY/WX    TMP DP  RH WIND       PRES   REMARKS
MONROE         SUNNY     65  40  39 VRB7      30.16F
6HR MIN TEMP:  42; 6HR MAX TEMP:  65;

TALLULAH       SUNNY     64  37  36 N12       30.14F
6HR MIN TEMP:  33; 6HR MAX TEMP:  64;


$$




USA.gov is the U.S. government's official web portal to all federal, state and local government web resources and services.